Location: Unspecified
(43.4680°N, 87.1740°E)
Time: 05:45:24
(UTC+00:00)

NOSS 0 Rocket - Pass Details

Date: 17 April 2021
Orbit: 935 x 955 km, 70.0° (Epoch: 17 May)

Event Time Altitude Azimuth Distance (km) Brightness Sun altitude
Rises 15:24:27 0° 331° (NNW) 3,625 8.2 -23.9°
Reaches altitude 10° 15:26:59 10° 330° (NNW) 2,679 7.3 -24.3°
Maximum altitude 15:33:11 71° 247° (WSW) 1,007 4.0 -25.0°
Enters shadow 15:34:48 50° 183° (S) 1,202 4.1 -25.2°
